Ingeniero Ambrosio Taravella Airport

Jump to: basic info | weather | frequencies | runways | comments

Related pages: nearby airports | nearby navaids | notams | map

Basic information (top)

Codes: COR SACO CBA
Location: lon -31.323601, lat -64.208000, elev 1,604 ft / 489 m msl
Status: medium_airport
Scheduled airline service: yes
Links: Wikipedia Mobile

Weather (top)

Current conditions (rec'd 2014/08/23 09:00Z):

SACO 230900Z 00000KT 9000 NSC 10/09 Q1006

Airport forecast (rec'd 2014/08/23 06:00Z):

TAF SACO 230500Z 2306/2406 18005KT 7000 BKN020 FEW040TCU TX33/2318Z TN13/2310Z PROB40 2308/2312 3000 BR BKN020 
      BECMG 2312/2315 36010KT 7000 BKN030 FEW040TCU 
      BECMG 2319/2320 18015KT 9999 BKN030 FEW040CB PROB40 2320/2324 5000 TS SHRA

Frequencies (top)

Verify before use: may be inaccurate or out of date.

ATIS: 114.5 MHz (ATIS)
GND: 121.75 MHz (GND)
MISC: 342.55 MHz (METAR NOTAM)
TWR: 118.3 MHz (CORDOBA TWR/APP)

Runways (top)

05/23: 7,218 x 148 ft (2,200 x 45 m) — paved — not lighted — threshold 05 displaced 840 ft (256 m)

18/36: 10,499 x 148 ft (3,200 x 45 m) — paved — lighted

Latest comments (top)

No comments yet for Ingeniero Ambrosio Taravella Airport

More... (top)

See also NOTAMs and nearby airports and navaids, or visit the Ingeniero Ambrosio Taravella Airport page at the main OurAirports website..